Time,TemperatureF,DewpointF,PressureIn,WindDirection,WindDirectionDegrees,WindSpeedMPH,WindSpeedGustMPH,Humidity,HourlyPrecipIn,Conditions,Clouds,dailyrainin,SolarRadiationWatts/m^2,SoftwareType,DateUTC
2013-02-13 00:01:00,37.0,29.0,-100.00,SSW,212,7.0,12.0,74,0.00,,,0.00,1.000000,,2013-02-13 08:01:00,
2013-02-13 00:32:00,35.0,28.0,-100.00,SW,232,3.0,13.0,76,0.00,,,0.00,1.000000,,2013-02-13 08:32:00,
2013-02-13 00:43:00,35.0,28.0,-100.00,SW,232,3.0,13.0,76,0.00,,,0.00,1.000000,,2013-02-13 08:43:00,
2013-02-13 00:52:00,35.0,28.0,-100.00,SW,232,3.0,13.0,76,0.00,,,0.00,1.000000,,2013-02-13 08:52:00,
2013-02-13 01:01:00,35.0,28.0,-100.00,SW,232,3.0,13.0,76,0.00,,,0.00,1.000000,,2013-02-13 09:01:00,
2013-02-13 01:21:00,36.0,29.0,-100.00,WSW,237,5.0,11.0,74,0.00,,,0.00,1.000000,,2013-02-13 09:21:00,
2013-02-13 01:32:00,36.0,29.0,-100.00,WSW,237,5.0,11.0,74,0.00,,,0.00,1.000000,,2013-02-13 09:32:00,
2013-02-13 01:42:00,36.0,29.0,-100.00,WSW,237,5.0,11.0,74,0.00,,,0.00,1.000000,,2013-02-13 09:42:00,
2013-02-13 01:52:00,36.0,29.0,-100.00,WSW,237,5.0,11.0,74,0.00,,,0.00,1.000000,,2013-02-13 09:52:00,
2013-02-13 02:01:00,36.0,29.0,-100.00,WSW,237,5.0,11.0,74,0.00,,,0.00,1.000000,,2013-02-13 10:01:00,
2013-02-13 02:32:00,39.0,31.0,-100.00,SSW,212,5.0,10.0,73,0.00,,,0.00,1.000000,,2013-02-13 10:32:00,
2013-02-13 02:42:00,39.0,31.0,-100.00,SSW,212,5.0,10.0,73,0.00,,,0.00,1.000000,,2013-02-13 10:42:00,
2013-02-13 02:52:00,39.0,31.0,-100.00,SSW,212,5.0,10.0,73,0.00,,,0.00,1.000000,,2013-02-13 10:52:00,
2013-02-13 03:01:00,39.0,31.0,-100.00,SSW,212,5.0,10.0,73,0.00,,,0.00,1.000000,,2013-02-13 11:01:00,
2013-02-13 03:02:00,39.0,32.0,-100.00,SSW,201,7.0,12.0,75,0.00,,,0.00,1.000000,,2013-02-13 11:02:00,
2013-02-13 03:32:00,39.0,32.0,-100.00,SSW,201,7.0,12.0,75,0.00,,,0.00,1.000000,,2013-02-13 11:32:00,
2013-02-13 03:42:00,39.0,32.0,-100.00,SSW,201,7.0,12.0,75,0.00,,,0.00,1.000000,,2013-02-13 11:42:00,
2013-02-13 03:52:00,39.0,32.0,-100.00,SSW,201,7.0,12.0,75,0.00,,,0.00,1.000000,,2013-02-13 11:52:00,
2013-02-13 04:02:00,38.0,31.0,-100.00,NNE,13,3.0,12.0,76,0.00,,,0.00,1.000000,,2013-02-13 12:02:00,
2013-02-13 04:32:00,38.0,31.0,-100.00,NNE,13,3.0,12.0,76,0.00,,,0.00,1.000000,,2013-02-13 12:32:00,
2013-02-13 04:42:00,38.0,31.0,-100.00,NNE,13,3.0,12.0,76,0.00,,,0.00,1.000000,,2013-02-13 12:42:00,
2013-02-13 04:52:00,38.0,31.0,-100.00,NNE,13,3.0,12.0,76,0.00,,,0.00,1.000000,,2013-02-13 12:52:00,
2013-02-13 05:32:00,35.0,30.0,-100.00,SSW,213,6.0,10.0,81,0.00,,,0.00,1.000000,,2013-02-13 13:32:00,
2013-02-13 05:42:00,35.0,30.0,-100.00,SSW,213,6.0,10.0,81,0.00,,,0.00,1.000000,,2013-02-13 13:42:00,
2013-02-13 05:52:00,35.0,30.0,-100.00,SSW,213,6.0,10.0,81,0.00,,,0.00,1.000000,,2013-02-13 13:52:00,
2013-02-13 06:01:00,35.0,30.0,-100.00,SSW,213,6.0,10.0,81,0.00,,,0.00,1.000000,,2013-02-13 14:01:00,
2013-02-13 06:22:00,37.0,30.0,-100.00,SW,218,8.0,11.0,76,0.00,,,0.00,1.000000,,2013-02-13 14:22:00,
2013-02-13 06:32:00,37.0,30.0,-100.00,SW,218,8.0,11.0,76,0.00,,,0.00,1.000000,,2013-02-13 14:32:00,
2013-02-13 06:42:00,37.0,30.0,-100.00,SW,218,8.0,11.0,76,0.00,,,0.00,1.000000,,2013-02-13 14:42:00,
2013-02-13 06:52:00,37.0,30.0,-100.00,SW,218,8.0,11.0,76,0.00,,,0.00,1.000000,,2013-02-13 14:52:00,
2013-02-13 07:01:00,37.0,30.0,-100.00,SW,218,8.0,11.0,76,0.00,,,0.00,1.000000,,2013-02-13 15:01:00,
2013-02-13 07:32:00,39.0,31.0,-100.00,SW,220,6.0,14.0,73,0.00,,,0.00,1.000000,,2013-02-13 15:32:00,
2013-02-13 07:42:00,39.0,31.0,-100.00,SW,220,6.0,14.0,73,0.00,,,0.00,1.000000,,2013-02-13 15:42:00,
2013-02-13 07:52:00,39.0,31.0,-100.00,SW,220,6.0,14.0,73,0.00,,,0.00,1.000000,,2013-02-13 15:52:00,
2013-02-13 08:01:00,39.0,31.0,-100.00,SW,220,6.0,14.0,73,0.00,,,0.00,1.000000,,2013-02-13 16:01:00,
2013-02-13 08:32:00,36.0,30.0,-100.00,WSW,246,4.0,7.0,78,-99.99,,,0.00,16.000000,,2013-02-13 16:32:00,
2013-02-13 08:42:00,36.0,30.0,-100.00,WSW,246,4.0,7.0,78,-99.99,,,0.00,16.000000,,2013-02-13 16:42:00,
2013-02-13 08:52:00,36.0,30.0,-100.00,WSW,246,4.0,7.0,78,-99.99,,,0.00,16.000000,,2013-02-13 16:52:00,
2013-02-13 09:01:00,36.0,30.0,-100.00,WSW,246,4.0,7.0,78,-99.99,,,0.00,16.000000,,2013-02-13 17:01:00,
2013-02-13 09:32:00,35.0,30.0,-100.00,WSW,253,5.0,7.0,81,0.00,,,0.00,48.000000,,2013-02-13 17:32:00,
2013-02-13 09:42:00,35.0,30.0,-100.00,WSW,253,5.0,7.0,81,0.00,,,0.00,48.000000,,2013-02-13 17:42:00,
2013-02-13 09:52:00,35.0,30.0,-100.00,WSW,253,5.0,7.0,81,0.00,,,0.00,48.000000,,2013-02-13 17:52:00,
2013-02-13 10:01:00,35.0,30.0,-100.00,WSW,253,5.0,7.0,81,0.00,,,0.00,48.000000,,2013-02-13 18:01:00,
2013-02-13 10:32:00,39.0,31.0,-100.00,SW,228,6.0,9.0,73,0.00,,,0.00,138.000000,,2013-02-13 18:32:00,
2013-02-13 10:42:00,39.0,31.0,-100.00,SW,228,6.0,9.0,73,0.00,,,0.00,138.000000,,2013-02-13 18:42:00,
2013-02-13 10:52:00,39.0,31.0,-100.00,SW,228,6.0,9.0,73,0.00,,,0.00,138.000000,,2013-02-13 18:52:00,
2013-02-13 11:01:00,39.0,31.0,-100.00,SW,228,6.0,9.0,73,0.00,,,0.00,138.000000,,2013-02-13 19:01:00,
2013-02-13 11:32:00,42.0,33.0,-100.00,SW,224,5.0,9.0,69,0.00,,,0.00,141.000000,,2013-02-13 19:32:00,
2013-02-13 11:42:00,42.0,33.0,-100.00,SW,224,5.0,9.0,69,0.00,,,0.00,141.000000,,2013-02-13 19:42:00,
2013-02-13 11:52:00,42.0,33.0,-100.00,SW,224,5.0,9.0,69,0.00,,,0.00,141.000000,,2013-02-13 19:52:00,
2013-02-13 12:01:00,42.0,33.0,-100.00,SW,224,5.0,9.0,69,0.00,,,0.00,141.000000,,2013-02-13 20:01:00,
2013-02-13 12:22:00,42.0,31.0,-100.00,WSW,238,8.0,14.0,66,0.00,,,-99.99,112.000000,,2013-02-13 20:22:00,
2013-02-13 12:32:00,42.0,31.0,-100.00,WSW,238,8.0,14.0,66,0.00,,,-99.99,112.000000,,2013-02-13 20:32:00,
2013-02-13 12:42:00,42.0,31.0,-100.00,WSW,238,8.0,14.0,66,0.00,,,-99.99,112.000000,,2013-02-13 20:42:00,
2013-02-13 12:52:00,42.0,31.0,-100.00,WSW,238,8.0,14.0,66,0.00,,,-99.99,112.000000,,2013-02-13 20:52:00,
2013-02-13 13:01:00,42.0,31.0,-100.00,WSW,238,8.0,14.0,66,0.00,,,-99.99,112.000000,,2013-02-13 21:01:00,
2013-02-13 13:32:00,43.0,32.0,-100.00,WSW,247,8.0,12.0,64,0.00,,,0.00,115.000000,,2013-02-13 21:32:00,
2013-02-13 13:42:00,43.0,32.0,-100.00,WSW,247,8.0,12.0,64,0.00,,,0.00,115.000000,,2013-02-13 21:42:00,
2013-02-13 13:52:00,43.0,32.0,-100.00,WSW,247,8.0,12.0,64,0.00,,,0.00,115.000000,,2013-02-13 21:52:00,
2013-02-13 14:01:00,43.0,32.0,-100.00,WSW,247,8.0,12.0,64,0.00,,,0.00,115.000000,,2013-02-13 22:01:00,
2013-02-13 14:32:00,44.0,32.0,-100.00,SW,222,7.0,14.0,63,0.00,,,0.00,136.000000,,2013-02-13 22:32:00,
2013-02-13 14:42:00,44.0,32.0,-100.00,SW,222,7.0,14.0,63,0.00,,,0.00,136.000000,,2013-02-13 22:42:00,
2013-02-13 14:52:00,44.0,32.0,-100.00,SW,222,7.0,14.0,63,0.00,,,0.00,136.000000,,2013-02-13 22:52:00,
2013-02-13 15:01:00,44.0,32.0,-100.00,SW,222,7.0,14.0,63,0.00,,,0.00,136.000000,,2013-02-13 23:01:00,
2013-02-13 15:32:00,44.0,32.0,-100.00,WSW,251,6.0,11.0,62,0.00,,,0.00,136.000000,,2013-02-13 23:32:00,
2013-02-13 15:42:00,44.0,32.0,-100.00,WSW,251,6.0,11.0,62,0.00,,,0.00,136.000000,,2013-02-13 23:42:00,
2013-02-13 15:52:00,44.0,32.0,-100.00,WSW,251,6.0,11.0,62,0.00,,,0.00,136.000000,,2013-02-13 23:52:00,
2013-02-13 16:01:00,44.0,32.0,-100.00,WSW,251,6.0,11.0,62,0.00,,,0.00,136.000000,,2013-02-14 00:01:00,
2013-02-13 16:32:00,47.0,33.0,-100.00,WSW,257,12.0,17.0,57,0.00,,,0.00,249.000000,,2013-02-14 00:32:00,
2013-02-13 16:42:00,47.0,33.0,-100.00,WSW,257,12.0,17.0,57,0.00,,,0.00,249.000000,,2013-02-14 00:42:00,
2013-02-13 16:52:00,47.0,33.0,-100.00,WSW,257,12.0,17.0,57,0.00,,,0.00,249.000000,,2013-02-14 00:52:00,
2013-02-13 17:01:00,47.0,33.0,-100.00,WSW,257,12.0,17.0,57,0.00,,,0.00,249.000000,,2013-02-14 01:01:00,
2013-02-13 17:32:00,43.0,29.0,-100.00,WSW,254,8.0,18.0,58,0.00,,,0.00,111.000000,,2013-02-14 01:32:00,
2013-02-13 17:42:00,43.0,29.0,-100.00,WSW,254,8.0,18.0,58,0.00,,,0.00,111.000000,,2013-02-14 01:42:00,
2013-02-13 17:51:00,43.0,29.0,-100.00,WSW,254,8.0,18.0,58,0.00,,,0.00,111.000000,,2013-02-14 01:51:00,
2013-02-13 18:01:00,43.0,29.0,-100.00,WSW,254,8.0,18.0,58,0.00,,,0.00,111.000000,,2013-02-14 02:01:00,
2013-02-13 18:02:00,39.0,30.0,-100.00,WSW,242,5.0,12.0,71,0.00,,,0.00,16.000000,,2013-02-14 02:02:00,
2013-02-13 18:21:00,39.0,30.0,-100.00,WSW,242,5.0,12.0,71,0.00,,,0.00,16.000000,,2013-02-14 02:21:00,
2013-02-13 18:32:00,39.0,30.0,-100.00,WSW,242,5.0,12.0,71,0.00,,,0.00,16.000000,,2013-02-14 02:32:00,
2013-02-13 18:42:00,39.0,30.0,-100.00,WSW,242,5.0,12.0,71,0.00,,,0.00,16.000000,,2013-02-14 02:42:00,
2013-02-13 18:51:00,39.0,30.0,-100.00,WSW,242,5.0,12.0,71,0.00,,,0.00,16.000000,,2013-02-14 02:51:00,
2013-02-13 19:22:00,37.0,30.0,-100.00,SE,135,3.0,7.0,77,0.00,,,0.00,1.000000,,2013-02-14 03:22:00,
2013-02-13 19:32:00,37.0,30.0,-100.00,SE,135,3.0,7.0,77,0.00,,,0.00,1.000000,,2013-02-14 03:32:00,
2013-02-13 19:42:00,37.0,30.0,-100.00,SE,135,3.0,7.0,77,0.00,,,0.00,1.000000,,2013-02-14 03:42:00,
2013-02-13 19:52:00,37.0,30.0,-100.00,SE,135,3.0,7.0,77,0.00,,,0.00,1.000000,,2013-02-14 03:52:00,
2013-02-13 20:01:00,37.0,30.0,-100.00,SE,135,3.0,7.0,77,0.00,,,0.00,1.000000,,2013-02-14 04:01:00,
2013-02-13 20:32:00,36.0,30.0,-100.00,ENE,73,3.0,5.0,78,0.00,,,0.00,1.000000,,2013-02-14 04:32:00,
2013-02-13 20:42:00,36.0,30.0,-100.00,ENE,73,3.0,5.0,78,0.00,,,0.00,1.000000,,2013-02-14 04:42:00,
2013-02-13 20:51:00,36.0,30.0,-100.00,ENE,73,3.0,5.0,78,0.00,,,0.00,1.000000,,2013-02-14 04:51:00,
2013-02-13 21:01:00,36.0,30.0,-100.00,ENE,73,3.0,5.0,78,0.00,,,0.00,1.000000,,2013-02-14 05:01:00,
2013-02-13 21:22:00,36.0,30.0,-100.00,East,81,5.0,9.0,78,0.00,,,0.00,1.000000,,2013-02-14 05:22:00,
2013-02-13 21:32:00,36.0,30.0,-100.00,East,81,5.0,9.0,78,0.00,,,0.00,1.000000,,2013-02-14 05:32:00,
2013-02-13 21:42:00,36.0,30.0,-100.00,East,81,5.0,9.0,78,0.00,,,0.00,1.000000,,2013-02-14 05:42:00,
2013-02-13 21:52:00,36.0,30.0,-100.00,East,81,5.0,9.0,78,0.00,,,0.00,1.000000,,2013-02-14 05:52:00,
2013-02-13 22:01:00,36.0,30.0,-100.00,East,81,5.0,9.0,78,0.00,,,0.00,1.000000,,2013-02-14 06:01:00,
2013-02-13 22:22:00,35.0,30.0,-100.00,East,99,5.0,8.0,82,0.00,,,0.00,1.000000,,2013-02-14 06:22:00,
2013-02-13 22:32:00,35.0,30.0,-100.00,East,99,5.0,8.0,82,0.00,,,0.00,1.000000,,2013-02-14 06:32:00,
2013-02-13 22:42:00,35.0,30.0,-100.00,East,99,5.0,8.0,82,0.00,,,0.00,1.000000,,2013-02-14 06:42:00,
2013-02-13 22:52:00,35.0,30.0,-100.00,East,99,5.0,8.0,82,0.00,,,0.00,1.000000,,2013-02-14 06:52:00,
2013-02-13 23:01:00,35.0,30.0,-100.00,East,99,5.0,8.0,82,0.00,,,0.00,1.000000,,2013-02-14 07:01:00,
2013-02-13 23:32:00,35.0,30.0,-100.00,East,97,6.0,7.0,81,0.00,,,0.00,1.000000,,2013-02-14 07:32:00,
2013-02-13 23:42:00,35.0,30.0,-100.00,East,97,6.0,7.0,81,0.00,,,0.00,1.000000,,2013-02-14 07:42:00,
2013-02-13 23:52:00,35.0,30.0,-100.00,East,97,6.0,7.0,81,0.00,,,0.00,1.000000,,2013-02-14 07:52:00,